Regional Weather Roundup
Issued by NWS Upton, NY

Current Version | Previous Version | Graphics & Text | Print | Product List | Glossary Off
Versions: 1 2 3 4 5 6 7 8 9 10 11 12 13 14 15 16 17 18 19 20 21 22 23 24 25 26 27 28 29 30 31 32 33 34 35 36 37 38 39 40 41 42 43 44 45 46 47 48 49 50

000
ASUS41 KOKX 260308
RWROKX

REGIONAL WEATHER ROUNDUP
NATIONAL WEATHER SERVICE NEW YORK NY
1100 PM EDT SAT MAR 25 2017

NOTE: "FAIR" INDICATES FEW OR NO CLOUDS BELOW 12,000 FEET WITH NO
SIGNIFICANT WEATHER AND/OR OBSTRUCTIONS TO VISIBILITY.

NYZ071-072-176-178-NJZ106-104-260400-
NEW YORK CITY METRO AREA

CITY           SKY/WX    TMP DP  RH WIND       PRES   REMARKS
Central Park   CLOUDY    44  39  82 VRB7      30.41R
Wall St Helipt CLOUDY    45  37  76 NE14      30.39R
LaGuardia APRT CLOUDY    45  38  76 NE14      30.38R
Kennedy INTL   CLOUDY    45  40  82 NE13      30.39R
Breezy Point     N/A     41 N/A N/A E8          N/A
Newark/Liberty CLOUDY    44  39  82 NE13      30.38R
Teterboro      CLOUDY    43  39  86 N8        30.38R
$$

NYZ177-179-078>081-260400-
LONG ISLAND NEW YORK

CITY           SKY/WX    TMP DP  RH WIND       PRES   REMARKS
Jones Beach      N/A     43 N/A N/A E10         N/A
Matinecock PT  NOT AVBL
Farmingdale    CLOUDY    42  38  85 N7        30.39R
MacArthur/ISP  CLOUDY    42  39  89 NE12      30.38S
Shirley        CLOUDY    41  38  89 N6        30.40R
Westhampton    CLOUDY    41  36  82 NE6       30.41R
East Hampton   CLOUDY    40  35  84 E5        30.40R
Montauk          N/A     41  37  86 NE6       30.41R
$$

NYZ052-065-067-260400-
HUDSON VALLEY

CITY           SKY/WX    TMP DP  RH WIND       PRES   REMARKS
White Plains   MOCLDY    41  37  86 NE7       30.37R
Newburgh       MOCLDY    36  34  93 E7        30.41S WCI  30
Montgomery     CLOUDY    36  32  85 NE7       30.39S WCI  30
Poughkeepsie   CLOUDY    35  32  88 N10       30.42R WCI  27
Albany         CLOUDY    34  26  72 N8        30.46R WCI  27
$$

NJZ001-105-106-008-010-013-015-019>022-104-260400-
NEW JERSEY

CITY           SKY/WX    TMP DP  RH WIND       PRES   REMARKS
Newark/Liberty CLOUDY    44  39  82 NE13      30.38R
Teterboro      CLOUDY    43  39  86 N8        30.38R
Caldwell       CLOUDY    42  38  85 NE6       30.38S
Somerville     MOCLDY    45  39  79 VRB6      30.35S
Linden         CLOUDY    44  38  80 CALM      30.38S
Sussex         CLOUDY    37  35  92 NE8       30.39R WCI  31
Andover          N/A     38  35  89 NE7       30.37R WCI  33
Trenton        CLOUDY    45  39  79 E9        30.34S
Millville      CLOUDY    48  42  80 E10       30.29S
Atlantic City  CLOUDY    46  39  76 NE15G22   30.32S
Wrightstown    PTCLDY    42  39  88 E8        30.33R
Toms River     MOCLDY    42  40  92 E8        30.37R
Belmar         CLOUDY    42  38  85 E12       30.36F
$$

PAZ047>061-062-071-260400-
EASTERN PENNSYLVANIA

CITY           SKY/WX    TMP DP  RH WIND       PRES   REMARKS
Philadelphia   PTCLDY    45  40  82 E13       30.34R
Allentown      CLOUDY    44  36  73 E13       30.33S
Scranton       CLOUDY    42  41  96 E5        30.32S
$$

CTZ002-004>006-009-010-012-RIZ004-006-007-MAZ004-011-015-260400-
SOUTHERN NEW ENGLAND
 IN CT

CITY           SKY/WX    TMP DP  RH WIND       PRES   REMARKS
Bradley INTL   PTCLDY    33  32  96 N7        30.42R WCI  27
Hartford       CLEAR     36  33  89 N7        30.43R WCI  30
Danbury        CLOUDY    39  37  92 NE3       30.40R
Wtrbury/Oxford CLOUDY    37  30  75 N6        30.39S WCI  33
Bridgeport     CLOUDY    41  35  79 NE9       30.41R
Meriden        CLEAR     38  33  82 N3        30.41S
New Haven      CLEAR     36  33  89 N6        30.41R WCI  31
Chester        NOT AVBL
Groton         CLOUDY    41  35  79 NE9       30.40R
Wilimantic     FOG       33  32  96 CALM      30.42R VSB 3/4

 IN RI

CITY           SKY/WX    TMP DP  RH WIND       PRES   REMARKS
Providence     PTCLDY    36  33  89 CALM      30.41R
Block Island   CLOUDY    39  36  89 NE6       30.40S WCI  35
Westerly       PTCLDY    40  36  86 CALM      30.41R
 IN MA

CITY           SKY/WX    TMP DP  RH WIND       PRES   REMARKS
Boston         CLOUDY    36  32  85 NW8       30.42R WCI  30
Worcester      CLEAR     33  28  81 N8        30.38R WCI  26
Westfield      PTCLDY    29  28  96 NE3       30.42R FOG
Provincetown   CLEAR     36  34  92 NW8       30.41R WCI  30
Nantucket      CLEAR     34  32  92 N6        30.39R WCI  29
$$

ANZ330-335-338-340-345-350-353-355-260400-
COASTAL MARINE OBSERVATIONS


STATION/POSITION TIME  SKY/WX   TEMP    WIND        PRES    VSBY  WAVE
                                AIR SEA DIR/SP/G                  HT/PER
                 (UTC)          (F)     (DEG/KT/KT) (MB)    (MI)  (FT/S)
NY HARB ENTRANCE 0150            42 42   60/ 12/ 16 1028.5          3/ 8
20 S FIRE ISLAND 0250            41 40   60/ 10/ 12 1028.3          4/ 5
GREAT SOUTH BAY  NOT AVBL
23 SSW MONTAUK P 0150            41 43              1029.0          4/ 8
15 E BARNEGAT LI 0230               42                N/A           5/ 5
HUDSON CANYON    0150            44 45  100/ 14/ 16 1026.7          5/ 5
KINGS POINT      0242            43 39              1028.8
EXECUTION ROCKS  NOT AVBL
CENTRAL LI SOUND 0215            40      20/  6/  8   N/A           0
EASTERN LI SOUND NOT AVBL
ROBBINS REEF     0242            44      50/ 17/ 21 1028.5
$$


>>>>>>>>>>>>>>>>>>>>>>>>>>>> KEY <<<<<<<<<<<<<<<<<<<<<<<<<<<
>                                                          <
>     SKY/WX - Sky Condition/Present Weather               <
>     TMP    - Temperature in Fahrenheit                   <
>     DP     - Dew Point in Fahrenheit                     <
>     RH     - Relative Humidity in Percent                <
>     WIND   - Direction (from) and Speed in MPH           <
>     PRES   - Mean Sea Level Pressure (inches of Hg)      <
>     WCI    - Wind Chill Index                            <
>     VSB    - VISIBILITY IN MILES                         <
>     HX     - HEAT INDEX                                  <
>     TC     - TEMPERATURE IN CELSIUS                      <
>     VRB    - VARIABLE WIND DIRECTION                     <
>                                                          <
>>>>>>>>>>>>>>>>>>>>>>>>>>>> KEY <<<<<<<<<<<<<<<<<<<<<<<<<<<



USA.gov is the U.S. government's official web portal to all federal, state and local government web resources and services.